Miscellaneous Local Product
Issued by NWS Hastings, NE

Home | Current Version | Previous Version | Graphics & Text | Print | Product List | Glossary On
Versions: 1 2 3 4 5 6 7 8 9 10 11 12 13 14 15 16 17 18 19 20 21 22 23 24 25 26 27 28 29 30 31 32 33 34 35 36 37 38 39 40 41 42 43 44 45 46 47 48 49 50
000
AXUS43 KGID 070002
MISGRI

GID CWA HOURLY WEATHER ROUNDUP
NATIONAL WEATHER SERVICE HASTINGS NE
700 PM CDT MON JUL 06 2015

NOTE: "FAIR" INDICATES FEW OR NO CLOUDS BELOW 12,000 FEET WITH NO
SIGNIFICANT WEATHER AND/OR OBSTRUCTIONS TO VISIBILITY.

...SOUTH CENTRAL NEBRASKA...

CITY           SKY/WX    TMP DP  RH WIND       PRES   REMARKS
GRAND ISLAND   CLOUDY    74  56  53 N23       30.02F HAZE
HASTINGS       PTSUNNY   74  58  57 N16G24    30.01S HAZE
KEARNEY        PTSUNNY   73  55  53 N22       30.03F
ORD            MOSUNNY   75  52  44 N17G24    30.06R
YORK           CLOUDY    73  63  68 N16G24    30.00S HAZE
AURORA         MOSUNNY   73  59  60 N14G21    30.01F HAZE
LEXINGTON      MOSUNNY   75  54  47 N13       30.07S HAZE
HOLDREGE       SUNNY     74  53  47 NE16G25   30.05S HAZE
HEBRON         CLOUDY    74  62  67 N20G29    29.95F

...NEBRASKA PANHANDLE...

CITY           SKY/WX    TMP DP  RH WIND       PRES   REMARKS
CHADRON        SUNNY     72  52  49 N5        30.19F
ALLIANCE       CLOUDY    67  54  63 N7        30.20F HAZE
SCOTTSBLUFF    CLOUDY    68  55  63 NE6       30.21F HAZE
SIDNEY         CLOUDY    68  52  56 NE13      30.22F HAZE

...WESTERN AND NORTH CENTRAL NEBRASKA...

CITY           SKY/WX    TMP DP  RH WIND       PRES   REMARKS
VALENTINE      MOSUNNY   72  53  51 N14G21    30.13F
AINSWORTH      MOSUNNY   73  55  53 N16       30.12S
ONEILL         SUNNY     73  55  52 N16G22    30.09R
BROKEN BOW     MOSUNNY   74  53  48 N17G26    30.09R HAZE
IMPERIAL       PTSUNNY   73  51  46 N15       30.14S
NORTH PLATTE   MOSUNNY   73  51  46 N14G24    30.11S
MCCOOK         SUNNY     76  53  44 NE21      30.07S HAZE

...EASTERN NEBRASKA...

CITY           SKY/WX    TMP DP  RH WIND       PRES   REMARKS
NORFOLK        CLOUDY    74  59  59 N15       30.01S HAZE
SO SIOUX CITY  CLOUDY    74  59  59 MISG      30.00R HAZE
TEKAMAH        CLOUDY    75  62  64 N15G21    29.96F HAZE
ALBION           N/A     73  56  55 N13G22    30.05R HAZE
OMAHA EPPLEY   CLOUDY    73  64  73 N15       29.94R
MILLARD        CLOUDY    74  65  72 N3        29.94F
LINCOLN        CLOUDY    73  64  73 N18       29.96S HAZE
NEBRASKA CITY  CLOUDY    70  67  89 NE12G17   29.92F
BEATRICE       CLOUDY    72  66  83 N17G26    29.94S
FALLS CITY     LGT RAIN  72  70  93 N5        29.88F

...NORTHERN KANSAS...

CITY           SKY/WX    TMP DP  RH WIND       PRES   REMARKS
GOODLAND       CLOUDY    71  55  56 N21G28    30.12S HAZE
HILL CITY      MOSUNNY   79  52  38 N23G35    30.02R HAZE
NORTON         CLEAR     75  43  31 N23       30.03S HAZE
PHILLIPSBURG   SUNNY     81  52  36 N20G31    30.00R HAZE
SMITH CENTER   MOSUNNY   75  57  53 N20G25    29.99R HAZE
HAYS           CLOUDY    77  57  50 N23       29.97R
RUSSELL        MOSUNNY   75  64  68 NE23G29   29.94R
CONCORDIA      CLOUDY    73  66  78 NE16      29.96R
SALINA         CLOUDY    74  68  81 N16       29.92R
TOPEKA         LGT RAIN  72  71  97 E3        29.88R



USA.gov is the U.S. government's official web portal to all federal, state and local government web resources and services.